Погода в Больших Алабухах

Россия / Воронежская область     51°34′27″N   42°14′56″E
темп.,
°C
ветер,
м/с
пор.,
м/с
влажн.,
%
обл.,
%
осадки,
мм/ч
давл.,
гПа
погр.,
м
22 апреля, чт
чт2200:00+7ю359050 0.0 101886
03:00+6ююз36885 0.0 101991
06:00+6юз36905 0.0 1020137
09:00+11юз47705 0.0 1021648
12:00+14зюз575426 0.2 10211780
15:00+14зюз355139 0.2 10211179
18:00+14ююз115773 0.0 102123
21:00+12ююв2267100 0.0 102228
23 апреля, пт
пт2300:00+11ю2271100 0.0 102230
03:00+10ююв2274100 0.0 102227
06:00+10юв2277100 0.0 102247
09:00+13ю476599 0.0 1021644
12:00+15ю3454100 0.1 10201372
15:00+13ю5670100 1.2 1020552
18:00+12ю3671100 0.0 1018507
21:00+9ююв359063 0.0 1018120
24 апреля, сб
сб2400:00+7ююв38935 0.0 1016179
03:00+7ю410945 0.0 1014219
06:00+7ю3594100 0.0 1013148
09:00+12ююз5876100 0.5 1012753
12:00+7зсз7108891 1.1 1012522
15:00+9з5769100 1.2 10121229
18:00+9зюз576699 0.5 1012952
21:00+7зюз41077100 1.3 1013372
25 апреля, вс
вс2500:00+4юз410871 0.0 1013216
03:00+3юз368794 0.0 1013127
06:00+4зюз589490 0.1 1015402
09:00+5зюз6782100 0.1 1016731
12:00+5з688739 0.1 1018657
15:00+10з7946100 0.2 10172396
18:00+9з46535 0.0 1018598
21:00+5юз357017 0.0 102079
26 апреля, пн
пн2600:00+3юз33725 0.0 102041
03:00+3ююз357299 0.0 101968
06:00+3ю3672100 0.0 1019133
09:00+9ююз585281 0.0 1018708
12:00+12ююз6742100 0.0 10171938
15:00+13ю6740100 0.0 10152280
18:00+11ююв595382 0.0 1013425
21:00+8ююв5136065 0.0 1013283